• In Latvia
  • List of Countries
  • For 7 days
  • Water Temperature
  • Satellite Maps
  • Weather Map
  • Weather Widgets
  • user-avatar
    Login

    Hourly Weather Riga

    Today, 23 July, Monday

    Time Temperature Precipitation Wind Pressure Humidity
    00:00 +18°C° 0 mm 2 mps 758 mmHg 85%
    01:00 +18°C° 0 mm 2 mps 758 mmHg 85%
    02:00 +17°C° 0 mm 2 mps 758 mmHg 86%
    03:00 +17°C° 0 mm 2 mps 758 mmHg 86%
    04:00 +17°C° 0 mm 2 mps 758 mmHg 87%
    05:00 +17°C° 0 mm 2 mps 758 mmHg 87%
    06:00 +19°C° 0 mm 2 mps 758 mmHg 81%
    07:00 +20°C° 0 mm 2 mps 758 mmHg 75%
    08:00 +23°C° 0 mm 2 mps 758 mmHg 70%
    09:00 +24°C° 0 mm 2 mps 758 mmHg 64%
    10:00 +26°C° 0 mm 2 mps 758 mmHg 58%
    11:00 +27°C° 0 mm 2 mps 758 mmHg 53%
    12:00 +28°C° 0 mm 2 mps 758 mmHg 51%
    13:00 +28°C° 0 mm 3 mps 758 mmHg 49%
    14:00 +28°C° 0 mm 3 mps 757 mmHg 48%
    15:00 +28°C° 0 mm 3 mps 757 mmHg 49%
    16:00 +27°C° 0 mm 3 mps 757 mmHg 51%
    17:00 +27°C° 0 mm 3 mps 757 mmHg 53%
    18:00 +25°C° 0 mm 3 mps 757 mmHg 59%
    19:00 +24°C° 0 mm 3 mps 758 mmHg 64%
    20:00 +21°C° 0 mm 2 mps 758 mmHg 70%
    21:00 +20°C° 0 mm 2 mps 758 mmHg 72%
    22:00 +19°C° 0 mm 2 mps 758 mmHg 74%
    23:00 +19°C° 0 mm 2 mps 758 mmHg 76%

    Tomorrow, 24 July, Tuesday

    Time Temperature Precipitation Wind Pressure Humidity
    00:00 +18°C° 0 mm 2 mps 758 mmHg 78%
    01:00 +18°C° 0 mm 2 mps 758 mmHg 81%
    02:00 +18°C° 0 mm 2 mps 758 mmHg 83%
    03:00 +18°C° 0 mm 2 mps 758 mmHg 85%
    04:00 +18°C° 0 mm 2 mps 758 mmHg 86%
    05:00 +18°C° 0 mm 2 mps 758 mmHg 88%
    06:00 +19°C° 0 mm 2 mps 758 mmHg 84%
    07:00 +21°C° 0 mm 2 mps 758 mmHg 81%
    08:00 +23°C° 0 mm 2 mps 758 mmHg 77%
    09:00 +24°C° 0.1 mm 2 mps 758 mmHg 77%
    10:00 +24°C° 0.1 mm 3 mps 758 mmHg 76%
    11:00 +25°C° 0.1 mm 3 mps 758 mmHg 75%
    12:00 +25°C° 0 mm 3 mps 758 mmHg 73%
    13:00 +26°C° 0 mm 3 mps 758 mmHg 70%
    14:00 +27°C° 0 mm 3 mps 758 mmHg 68%
    15:00 +27°C° 0.3 mm 3 mps 758 mmHg 70%
    16:00 +26°C° 0.3 mm 4 mps 758 mmHg 73%
    17:00 +26°C° 0.3 mm 4 mps 758 mmHg 76%
    18:00 +25°C° 0.2 mm 4 mps 758 mmHg 80%
    19:00 +24°C° 0.2 mm 3 mps 758 mmHg 84%
    20:00 +22°C° 0.2 mm 3 mps 758 mmHg 88%
    21:00 +21°C° 0 mm 3 mps 758 mmHg 89%
    22:00 +20°C° 0 mm 3 mps 758 mmHg 91%
    23:00 +20°C° 0 mm 3 mps 758 mmHg 93%

    Day after tomorrow, 25 July, Wednesday

    Time Temperature Precipitation Wind Pressure Humidity
    00:00 +19°C° 0 mm 2 mps 758 mmHg 94%
    01:00 +19°C° 0 mm 2 mps 758 mmHg 95%
    02:00 +19°C° 0 mm 2 mps 758 mmHg 96%
    03:00 +19°C° 0 mm 2 mps 759 mmHg 96%
    04:00 +18°C° 0 mm 2 mps 759 mmHg 96%
    05:00 +18°C° 0 mm 2 mps 759 mmHg 97%
    06:00 +20°C° 0 mm 2 mps 759 mmHg 92%
    07:00 +21°C° 0 mm 2 mps 759 mmHg 88%
    08:00 +23°C° 0 mm 2 mps 759 mmHg 84%
    09:00 +25°C° 0 mm 2 mps 759 mmHg 77%
    10:00 +26°C° 0 mm 2 mps 759 mmHg 71%
    11:00 +28°C° 0 mm 2 mps 759 mmHg 64%
    12:00 +28°C° 0.4 mm 3 mps 759 mmHg 65%
    13:00 +28°C° 0.4 mm 3 mps 759 mmHg 65%
    14:00 +28°C° 0.4 mm 3 mps 759 mmHg 66%
    15:00 +28°C° 0.8 mm 4 mps 759 mmHg 69%
    16:00 +27°C° 0.8 mm 4 mps 759 mmHg 73%
    17:00 +27°C° 0.8 mm 4 mps 759 mmHg 76%
    18:00 +26°C° 0.1 mm 3 mps 759 mmHg 79%
    19:00 +25°C° 0.1 mm 3 mps 759 mmHg 82%
    20:00 +24°C° 0.1 mm 3 mps 759 mmHg 85%
    21:00 +23°C° 0 mm 2 mps 759 mmHg 88%
    22:00 +23°C° 0 mm 2 mps 759 mmHg 90%
    23:00 +21°C° 0 mm 2 mps 759 mmHg 92%

    26 July, Thursday

    Time Temperature Precipitation Wind Pressure Humidity
    00:00 +21°C° 0 mm 2 mps 759 mmHg 93%
    01:00 +21°C° 0 mm 2 mps 759 mmHg 94%
    02:00 +20°C° 0 mm 2 mps 759 mmHg 95%
    03:00 +20°C° 0.2 mm 2 mps 760 mmHg 96%
    04:00 +20°C° 0.2 mm 2 mps 760 mmHg 96%
    05:00 +20°C° 0.2 mm 2 mps 760 mmHg 96%
    06:00 +21°C° 0.1 mm 2 mps 760 mmHg 92%
    07:00 +24°C° 0.1 mm 2 mps 760 mmHg 88%
    08:00 +25°C° 0.1 mm 2 mps 760 mmHg 84%
    09:00 +27°C° 0 mm 2 mps 760 mmHg 77%
    10:00 +28°C° 0 mm 2 mps 760 mmHg 69%
    11:00 +29°C° 0 mm 2 mps 760 mmHg 62%
    12:00 +30°C° 0 mm 2 mps 760 mmHg 60%
    13:00 +30°C° 0 mm 2 mps 760 mmHg 57%
    14:00 +31°C° 0 mm 3 mps 760 mmHg 54%
    15:00 +30°C° 0.3 mm 3 mps 760 mmHg 57%
    16:00 +30°C° 0.3 mm 3 mps 760 mmHg 60%
    17:00 +30°C° 0.3 mm 4 mps 760 mmHg 62%
    18:00 +28°C° 0 mm 3 mps 760 mmHg 68%
    19:00 +27°C° 0 mm 3 mps 760 mmHg 73%
    20:00 +26°C° 0 mm 3 mps 760 mmHg 78%
    21:00 +25°C° 0 mm 3 mps 760 mmHg 81%
    22:00 +24°C° 0 mm 3 mps 760 mmHg 84%
    23:00 +23°C° 0 mm 2 mps 760 mmHg 87%

    27 July, Friday

    Time Temperature Precipitation Wind Pressure Humidity
    00:00 +21°C° 0 mm 2 mps 760 mmHg 88%
    01:00 +21°C° 0 mm 2 mps 760 mmHg 90%
    02:00 +21°C° 0 mm 2 mps 760 mmHg 91%
    03:00 +21°C° 0 mm 2 mps 760 mmHg 92%
    04:00 +20°C° 0 mm 2 mps 760 mmHg 92%
    05:00 +20°C° 0 mm 2 mps 760 mmHg 92%
    06:00 +23°C° 0 mm 2 mps 761 mmHg 87%
    07:00 +24°C° 0 mm 2 mps 761 mmHg 81%
    08:00 +26°C° 0 mm 3 mps 761 mmHg 75%
    09:00 +27°C° 0.1 mm 3 mps 761 mmHg 72%
    10:00 +28°C° 0.1 mm 3 mps 761 mmHg 69%
    11:00 +28°C° 0.1 mm 3 mps 760 mmHg 66%
    12:00 +29°C° 1.1 mm 3 mps 760 mmHg 67%
    13:00 +29°C° 1.1 mm 4 mps 760 mmHg 68%
    14:00 +29°C° 1.1 mm 4 mps 760 mmHg 69%
    15:00 +28°C° 1.6 mm 4 mps 760 mmHg 72%
    16:00 +28°C° 1.6 mm 4 mps 760 mmHg 75%
    17:00 +28°C° 1.6 mm 4 mps 760 mmHg 77%
    18:00 +27°C° 1.4 mm 4 mps 760 mmHg 81%
    19:00 +26°C° 1.4 mm 3 mps 760 mmHg 85%
    20:00 +25°C° 1.4 mm 3 mps 760 mmHg 89%
    21:00 +24°C° 0.9 mm 3 mps 760 mmHg 90%
    22:00 +24°C° 0.9 mm 3 mps 760 mmHg 91%
    23:00 +24°C° 0.9 mm 3 mps 760 mmHg 93%

    28 July, Saturday

    Time Temperature Precipitation Wind Pressure Humidity
    00:00 +22°C° 0.4 mm 3 mps 760 mmHg 93%
    01:00 +22°C° 0.4 mm 4 mps 760 mmHg 94%
    02:00 +22°C° 0.4 mm 4 mps 760 mmHg 95%
    03:00 +22°C° 0.2 mm 4 mps 760 mmHg 95%
    04:00 +21°C° 0.2 mm 4 mps 760 mmHg 96%
    05:00 +21°C° 0.2 mm 4 mps 761 mmHg 96%
    06:00 +22°C° 0 mm 4 mps 761 mmHg 93%
    07:00 +23°C° 0 mm 4 mps 761 mmHg 90%
    08:00 +25°C° 0 mm 4 mps 761 mmHg 87%
    09:00 +27°C° 0 mm 4 mps 761 mmHg 79%
    10:00 +28°C° 0 mm 4 mps 761 mmHg 71%
    11:00 +30°C° 0 mm 4 mps 761 mmHg 64%
    12:00 +32°C° 0 mm 5 mps 761 mmHg 59%
    13:00 +33°C° 0 mm 5 mps 761 mmHg 55%
    14:00 +33°C° 0 mm 5 mps 761 mmHg 51%
    15:00 +33°C° 0 mm 4 mps 761 mmHg 51%
    16:00 +33°C° 0 mm 4 mps 761 mmHg 52%
    17:00 +33°C° 0 mm 4 mps 762 mmHg 53%
    18:00 +30°C° 0 mm 4 mps 762 mmHg 60%
    19:00 +29°C° 0 mm 3 mps 762 mmHg 66%
    20:00 +27°C° 0 mm 3 mps 762 mmHg 72%
    21:00 +26°C° 0 mm 3 mps 763 mmHg 74%
    22:00 +25°C° 0 mm 3 mps 763 mmHg 76%
    23:00 +24°C° 0 mm 3 mps 763 mmHg 77%
    Show more